This demonstration page uses our WeatherBlox Daily Observations layout. Learn more.

Left ArrowRight Arrow

Hourly Observations for September 26, 2018

Temp ( °F °C ) Dew Point ( °F °C ) Humidity (%) Winds ( mph kmh ) Pressure ( in mb ) Visibility ( mi km ) Precip ( " mm )
12:57 am 00:57 Clear 44 6.7 39 3.9 83 83 WNW 8 13 30.27 1025 10 16 0.00 0.00
1:57 am 01:57 Clear 42 5.6 38 3.3 85 85 WNW 9 15 30.28 1025 10 16 0.00 0.00
2:57 am 02:57 Clear 43 6.1 37 2.8 80 80 WNW 7 11 30.28 1025 10 16 0.00 0.00
3:57 am 03:57 Clear 41 5 37 2.8 86 86 Calm 30.27 1025 10 16 0.00 0.00
4:57 am 04:57 Clear 44 6.7 37 2.8 76 76 NW 8 13 30.27 1025 10 16 0.00 0.00
5:57 am 05:57 Clear 41 5 36 2.2 82 82 NNW 3 6 30.28 1026 10 16 0.00 0.00
6:57 am 06:57 Clear 40 4.4 36 2.2 86 86 WNW 7 11 30.30 1026 10 16 0.00 0.00
7:57 am 07:57 Sunny 43 6.1 37 2.8 80 80 WSW 6 9 30.32 1027 10 16 0.00 0.00
8:57 am 08:57 Sunny 45 7.2 39 3.9 80 80 WSW 8 13 30.34 1027 10 16 0.00 0.00
10:57 am 10:57 Sunny 59 15 36 2.2 42 42 VRB 5 7 30.31 1026 10 16 0.00 0.00
11:57 am 11:57 Sunny 63 17.2 33 0.6 33 33 VRB 7 11 30.31 1026 10 16 0.00 0.00
12:57 pm 12:57 Sunny 66 18.9 35 1.7 32 32 SSW 15 24 30.27 1025 10 16 0.00 0.00
1:57 pm 13:57 Sunny 67 19.4 34 1.1 30 30 SW 13 20 30.23 1024 10 16 0.00 0.00
2:57 pm 14:57 Sunny 69 20.6 34 1.1 27 27 SW 13 20 30.18 1022 10 16 0.00 0.00
3:57 pm 15:57 Sunny 71 21.7 37 2.8 29 29 SW 16 26 30.14 1021 10 16 0.00 0.00
4:57 pm 16:57 Sunny 71 21.7 38 3.3 30 30 SSW 15 24 30.10 1019 10 16 0.00 0.00
5:57 pm 17:57 Sunny 70 21.1 38 3.3 31 31 SW 14 22 30.09 1019 10 16 0.00 0.00
6:57 pm 18:57 Sunny 67 19.4 40 4.4 37 37 S 10 17 30.09 1019 10 16 0.00 0.00
7:57 pm 19:57 Clear 59 15 41 5 51 51 S 9 15 30.09 1019 10 16 0.00 0.00
8:57 pm 20:57 Clear 58 14.4 41 5 53 53 S 10 17 30.08 1019 10 16 0.00 0.00
9:57 pm 21:57 Clear 58 14.4 41 5 53 53 S 14 22 30.06 1018 10 16 0.00 0.00
10:57 pm 22:57 Clear 59 15 41 5 51 51 S 14 22 30.05 1018 10 16 0.00 0.00
11:57 pm 23:57 Clear 58 14.4 41 5 53 53 S 15 24 30.04 1017 10 16 0.00 0.00

Powered by AerisWeather